Regional Weather Roundup
Issued by NWS

Home | Current Version | Previous Version | Text Only | Print | Product List | Glossary Off
Versions: 1 2 3 4 5 6 7 8 9 10 11 12 13 14 15 16 17 18 19 20 21 22 23 24 25 26 27 28 29 30 31 32 33 34 35 36 37 38 39 40 41 42 43 44 45 46 47 48 49 50

695
ASUS44 KLIX 221805
RWRLA
LOUISIANA WEATHER ROUNDUP
NATIONAL WEATHER SERVICE NEW ORLEANS LA
1200 PM CST SAT NOV 22 2014

NOTE: "FAIR" INDICATES FEW OR NO CLOUDS BELOW 12,000 FEET WITH NO
      SIGNIFICANT WEATHER AND/OR OBSTRUCTIONS TO VISIBILITY.
      SKY/WX - SKY CONDITION AND SIGNIFICANT WEATHER.
      TMP - AIR TEMPERATURE.    DP   - DEWPOINT TEMPERATURE.
      RH  - RELATIVE HUMIDITY.  PRES - PRESSURE.
      HX  - HEAT INDEX.         WCI  - WIND CHILL INDEX.

*  THESE STATIONS ARE NOT NWS OR FAA STATIONS AND ARE NOT UNDER
   NWS QUALITY CONTROL.

LAZ040-048-061>063-065-066-069-221900-
SOUTHEAST LOUISIANA

CITY           SKY/WX    TMP DP  RH WIND       PRES   REMARKS
N.O. AUDUBON     N/A     70  61  73 MISG        N/A
6HR MIN TEMP:  58; 6HR MAX TEMP:  70;

N.O. INTL ARPT CLOUDY    68  58  70 E10       30.14F
6HR MIN TEMP:  55; 6HR MAX TEMP:  69;

N.O. LAKEFRONT CLOUDY    66  57  72 E16       30.15F
6HR MIN TEMP:  56; 6HR MAX TEMP:  66;

N.O. DOWNTOWN* MOCLDY    66  55  68 E8        30.15F
6HR MIN TEMP:  57; 6HR MAX TEMP:  66;

SLIDELL        CLOUDY    69  56  62 E10G20    30.16F
6HR MIN TEMP:  50; 6HR MAX TEMP:  69;

BATON ROUGE    CLOUDY    67  57  70 E21G28    30.12F
6HR MIN TEMP:  50; 6HR MAX TEMP:  68;

BOOTHVILLE     CLOUDY    69  63  81 E13       30.15F
6HR MIN TEMP:  59; 6HR MAX TEMP:  70;

BELLE CHASSE   CLOUDY    69  58  67 E15       30.14F
6HR MIN TEMP:  55; 6HR MAX TEMP:  71;

BOGALUSA*        N/A     71  53  53 SE6       30.17F
6HR MIN TEMP:  43; 6HR MAX TEMP:  71;

NEW ROADS*     FAIR      67  56  68 E10G21    30.11F
6HR MIN TEMP:  53; 6HR MAX TEMP:  67;

GONZALES*      FAIR      65  57  77 NE5G17    30.11F
6HR MIN TEMP:  52; 6HR MAX TEMP:  65;

HAMMOND*       CLOUDY    70  55  60 SE10      30.15F
HOUMA*         CLOUDY    70  63  78 E17       30.13F
PORT FOURCHON* CLEAR     68  63  83 E10       30.14F

$$

LAZ041-044-053-054-221900-
SOUTHWEST LOUISIANA

CITY           SKY/WX    TMP DP  RH WIND       PRES   REMARKS
LAKE CHARLES   CLOUDY    70  60  70 SE23      30.06F
6HR MIN TEMP:  54; 6HR MAX TEMP:  71;

LAFAYETTE      CLOUDY    69  57  65 VRB5      30.09F
6HR MIN TEMP:  55; 6HR MAX TEMP:  69;

PATTERSON      CLOUDY    70  61  73 E15G22    30.09F
6HR MIN TEMP:  54; 6HR MAX TEMP:  70;

SALT POINT       N/A     72  61  68 SE16G25   30.04F
6HR MIN TEMP:  56; 6HR MAX TEMP:  72;

NEW IBERIA     CLOUDY    69  58  67 E16       30.09F
6HR MIN TEMP:  57; 6HR MAX TEMP:  70;

CHENAULT AIRPK NOT AVBL

$$

LAZ027-028-221900-
CENTRAL LOUISIANA

CITY           SKY/WX    TMP DP  RH WIND       PRES   REMARKS
FORT POLK      PTSUNNY   67  59  73 SE12      30.07F
6HR MIN TEMP:  54; 6HR MAX TEMP:  68;

ALEXANDRIA INT CLOUDY    69  56  62 SE15      30.09F
6HR MIN TEMP:  54; 6HR MAX TEMP:  69;

ALEXANDRIA     CLOUDY    69  56  62 SE13G20   30.11F
6HR MIN TEMP:  53; 6HR MAX TEMP:  70;


$$

LAZ001-002-221900-
NORTHWEST LOUISIANA

CITY           SKY/WX    TMP DP  RH WIND       PRES   REMARKS
SHREVEPORT     PTSUNNY   70  56  61 S16       30.06F
6HR MIN TEMP:  56; 6HR MAX TEMP:  70;

BARKSDALE AFB  SUNNY     69  56  64 SE16G22   30.06F
6HR MIN TEMP:  56; 6HR MAX TEMP:  69;

DTN SHREVEPORT SUNNY     67  54  63 SE14G22   30.06F
6HR MIN TEMP:  56; 6HR MAX TEMP:  68;


$$

LAZ014-016-221900-
NORTHEAST LOUISIANA

CITY           SKY/WX    TMP DP  RH WIND       PRES   REMARKS
MONROE         MOSUNNY   70  54  56 S10G18    30.13F
6HR MIN TEMP:  55; 6HR MAX TEMP:  70; 6HR PCP: TRACE;

TALLULAH       PTSUNNY   70  52  52 SE15      30.14F
6HR MIN TEMP:  53; 6HR MAX TEMP:  70;


$$




USA.gov is the U.S. government's official web portal to all federal, state and local government web resources and services.